User: anonymous   Login
Location: Unspecified
(0.0000°N, 0.0000°E)
Time: 20:55:23
(UTC+00:00)
Language:

N. Korean satellite - Orbit

View from above orbital plane
View from above orbital plane
View from above satellite
View from above satellite

Ground track
Ground track

The orbit data is extracted from the following two-line orbital elements,

1 39026U 12072A   19143.92343855 +.00000768 +00000-0 +30431-4 0  9995
2 39026 097.2109 147.9089 0037777 190.2111 169.8365 15.27748934357603
Epoch (UTC): 23 May 2019 22:09:45
Eccentricity: 0.0037777
inclination: 97.2109°
perigee height: 456 km
apogee height: 508 km
right ascension of ascending node: 147.9089°
argument of perigee: 190.2111°
revolutions per day: 15.27748934
mean anomaly at epoch: 169.8365°
orbit number at epoch: 35760

The dashed part of the orbit path shows where the satellite is in the earth's shadow,  

DLR